Home   Weather   Graz   Past weeks

Flag for Austria Past Weather in Graz, Styria, Austria — Yesterday and Last 2 Weeks

Now
66 °F

Partly sunny.


Feels Like: 66 °F
Forecast: 57 / 73 °F
Wind: 6 mph from Northeast

Location: Graz-Thalerhof-Flughafen

Current Time: Jul 24, 2017 at 10:57:18 am

Latest Report: Jul 24, 2017 at 10:20 am


Visibility: N/A

Pressure: 29.80 "Hg

Humidity: 88%

Dew Point: 63 °F

Location of GrazLocation

Past Weather in Graz — Graph

°F

Graz Temperature Yesterday

Maximum temperature yesterday: 86 °F (at 12:50 pm)
Minimum temperature yesterday: 63 °F (at 2:50 am)
Average temperature yesterday: 74 °F

High & Low Weather Summary for the Past Weeks

 TemperatureHumidityPressure
High91 °F (Jul 10, 2:50 pm)100% (Jul 24, 2:20 am)30.24 "Hg (Jul 24, 2:20 am)
Low48 °F (Jul 16, 4:50 am)26% (Jul 20, 3:50 pm)29.77 "Hg (Jul 10, 6:20 pm)
Average71 °F61%30.01 "Hg
* Reported Jul 9 9:20 am — Jul 24 9:50 am, Graz. Weather by CustomWeather, © 2017

Note: Actual official high and low records may vary slightly from our data, if they occured in-between our weather recording intervals... More about our weather records

Advertising

Graz Weather History for the Previous 24 Hours

Scroll right to see more
 ConditionsComfort  
Time TempWeatherWind HumidityBarometerVisibility
9:50 am
Mon, Jul 24
66 °FSprinkles. Broken clouds.6 mph88%29.83 "HgN/A
9:20 am66 °FBroken clouds.7 mph88%29.83 "HgN/A
8:50 am64 °FPartly sunny.3 mph94%29.86 "HgN/A
8:20 am64 °FPartly sunny.2 mph94%29.89 "HgN/A
7:50 am64 °FBroken clouds.5 mph94%29.89 "HgN/A
7:20 am64 °FThunderstorms. Broken clouds.5 mph94%29.89 "HgN/A
6:20 am64 °FThundershowers. Broken clouds.9 mph94%29.92 "HgN/A
5:50 am66 °FThundershowers. Broken clouds.13 mph88%29.92 "HgN/A
5:20 am66 °FThunderstorms. Overcast.7 mph88%29.92 "HgN/A
4:50 am66 °FLight rain. Overcast.1 mph94%29.89 "Hg5 mi
4:20 am66 °FDrizzle. Overcast.2 mph94%29.92 "Hg6 mi
3:50 am64 °FMild.2 mph100%29.92 "Hg4 mi
3:20 am64 °FFog.1 mph100%29.95 "Hg2 mi
2:50 am64 °FFog.2 mph100%29.95 "Hg3 mi
2:20 am64 °FPassing clouds.2 mph100%29.95 "Hg5 mi
1:50 am66 °FPassing clouds.2 mph94%29.98 "HgN/A
1:20 am66 °FPassing clouds.2 mph94%29.98 "HgN/A
12:50 am66 °FSprinkles. Partly cloudy.1 mph94%30.01 "HgN/A
12:20 am66 °FPartly cloudy.2 mph94%30.01 "HgN/A
11:50 pm
Sun, Jul 23
66 °FSprinkles. Partly cloudy.5 mph94%30.01 "HgN/A
11:20 pm66 °FPassing clouds.3 mph94%30.01 "HgN/A
10:20 pm66 °FHeavy rain. Overcast.8 mph94%30.01 "Hg5 mi
9:50 pm66 °FThunderstorms. Overcast.9 mph94%30.04 "Hg5 mi
9:20 pm70 °FThunderstorms. Partly cloudy.7 mph88%30.01 "HgN/A
8:50 pm72 °FThunderstorms. Partly cloudy.6 mph78%29.98 "HgN/A
8:20 pm72 °FThunderstorms. Partly sunny.2 mph73%29.98 "HgN/A
7:50 pm73 °FPartly sunny.5 mph65%29.98 "HgN/A
7:20 pm73 °FBroken clouds.2 mph65%29.95 "HgN/A
6:50 pm73 °FBroken clouds.5 mph65%29.95 "HgN/A
6:20 pm75 °FBroken clouds.7 mph61%29.98 "HgN/A
5:20 pm79 °FSprinkles. Broken clouds.10 mph58%29.98 "HgN/A
4:50 pm79 °FThundershowers. Broken clouds.10 mph58%29.95 "HgN/A
4:20 pm81 °FBroken clouds.14 mph58%29.95 "HgN/A
3:50 pm82 °FBroken clouds.9 mph55%29.95 "HgN/A
3:20 pm82 °FBroken clouds.7 mph51%29.95 "HgN/A
2:50 pm79 °FThunderstorms. Broken clouds.9 mph58%29.98 "HgN/A
2:20 pm84 °FBroken clouds.5 mph45%29.95 "HgN/A
1:50 pm86 °FBroken clouds.3 mph38%29.95 "HgN/A
1:20 pm86 °FBroken clouds.7 mph40%29.95 "HgN/A
12:50 pm86 °FBroken clouds.5 mph38%29.95 "HgN/A
12:20 pm84 °FPartly sunny.7 mph40%29.95 "HgN/A
11:50 am84 °FPartly sunny.9 mph40%29.95 "HgN/A
11:20 am82 °FPartly sunny.12 mph48%29.95 "HgN/A
10:50 am81 °FScattered clouds.16 mph48%29.98 "HgN/A
10:20 am81 °FPassing clouds.6 mph51%29.98 "HgN/A
Weather by CustomWeather, © 2017

See weather overviewHow to use our weather pages